Location: ????????
(48.4751°N, 37.6926°E)
Time: 03:17:15
(UTC+00:00)

X-37B - Pass Details

Date: 20 January 2021
Orbit: 383 x 391 km, 45.0° (Epoch: 10 February)

Event Time Altitude Azimuth Distance (km) Brightness Sun altitude
Rises 15:58:18 0° 225° (SW) 2,267 5.4 -17.7°
Reaches altitude 10° 16:00:39 10° 209° (SSW) 1,416 3.9 -18.1°
Enters shadow 16:03:00 21° 162° (SSE) 929 2.4 -18.5°
